DW3310 Weather Reports


Display with metric or nautical units.
time (UTC)temp
F
wind
direction
speed
MPH
gust
MPH
rain 1hr
in
rain 24hr
in
rain mn
in
humidity
%
barometer
mb
20260504024516 42 360 0.0 0.0 0.00 0.03 0.03 56 1009.4
20260504023012 42 300 0.0 0.0 0.00 0.03 0.03 56 1009.4
20260504021511 42 360 0.0 0.0 0.00 0.03 0.03 56 1009.4
20260504020004 43 360 0.0 0.0 0.00 0.03 0.03 55 1009.4
20260504014502 42 360 0.0 0.0 0.00 0.03 0.03 56 1009.4
20260504013101 42 360 0.0 0.0 0.00 0.03 0.03 57 1009.3
20260504011559 42 360 0.0 0.0 0.00 0.03 0.03 56 1009.3
20260504004603 42 360 0.0 0.0 0.00 0.04 0.03 57 1009.0
20260504003105 43 360 0.0 0.0 0.00 0.04 0.03 56 1008.9
20260504001604 43 360 0.0 0.0 0.00 0.04 0.03 55 1008.6
20260504000055 43 304 0.0 0.0 0.00 0.04 0.03 54 1008.4
20260503234545 44 360 0.0 0.0 0.00 0.06 0.03 53 1008.3
20260503233041 44 279 0.0 0.0 0.00 0.06 0.03 51 1008.1
20260503231536 44 360 0.0 0.0 0.00 0.06 0.03 52 1008.0
20260503230036 45 360 0.0 0.0 0.00 0.06 0.03 51 1007.9
20260503224527 46 360 0.0 0.0 0.00 0.13 0.03 51 1007.9
20260503223027 46 360 0.0 0.0 0.00 0.13 0.03 50 1007.8
20260503221527 46 299 0.0 0.0 0.00 0.13 0.03 51 1007.6
20260503220026 46 360 0.0 0.0 0.00 0.13 0.03 52 1007.6
20260503214525 44 302 0.0 0.0 0.00 0.14 0.03 52 1007.5
20260503213025 45 286 0.0 0.0 0.00 0.14 0.03 53 1007.5
20260503211532 45 360 0.0 0.0 0.00 0.14 0.03 53 1007.5
20260503210021 46 301 0.0 0.0 0.00 0.14 0.03 55 1007.2
20260503204514 44 300 0.0 0.0 0.00 0.14 0.03 56 1007.2
20260503203010 45 291 0.0 0.0 0.00 0.14 0.03 54 1007.1
20260503201504 45 312 0.0 0.0 0.00 0.14 0.03 55 1006.9
20260503200101 45 299 0.0 0.0 0.00 0.14 0.03 54 1006.9
20260503194559 45 289 0.0 0.0 0.00 0.14 0.03 54 1006.8
20260503193107 46 294 0.0 0.0 0.00 0.14 0.03 55 1006.9
20260503191552 45 49 6.0 22.0 0.00 0.14 0.03 56 1007.0
20260503190105 45 16 11.0 21.0 0.00 0.14 0.03 54 1007.0
20260503184550 46 336 11.0 19.0 0.00 0.14 0.03 54 1007.0
20260503183057 46 287 13.0 23.0 0.00 0.14 0.03 53 1007.0
20260503181540 45 300 10.0 24.0 0.00 0.14 0.03 58 1007.0
20260503180046 44 321 14.0 25.0 0.00 0.14 0.03 58 1007.0
20260503174531 44 277 13.0 19.0 0.00 0.14 0.03 58 1007.1
20260503173027 44 330 9.0 24.0 0.00 0.14 0.03 61 1007.1
20260503171533 43 16 11.0 31.0 0.00 0.14 0.03 61 1007.1
20260503081545 38 360 0.0 0.0 0.00 0.20 0.01 96 1008.8
20260503071542 38 360 0.0 0.0 0.01 0.20 0.01 96 1009.2
20260503054535 39 360 0.0 0.0 0.00 0.19 0.00 96 1010.0
20260503053024 39 360 0.0 0.0 0.00 0.19 0.00 96 1010.0
20260503051521 39 360 0.0 0.0 0.00 0.19 0.00 96 1010.1
20260503050019 39 360 0.0 0.0 0.00 0.19 0.00 96 1010.3
20260503044517 39 360 0.0 0.0 0.00 0.19 0.00 96 1010.6
20260503043015 39 360 0.0 0.0 0.00 0.19 0.00 96 1010.9
20260503041517 40 360 0.0 0.0 0.00 0.19 0.00 96 1011.0
20260503040011 40 360 0.0 0.0 0.00 0.19 0.00 96 1011.2
20260503034510 40 360 0.0 0.0 0.00 0.19 0.19 96 1011.4
20260503033011 40 360 0.0 0.0 0.00 0.19 0.19 96 1011.4
20260503031508 40 360 0.0 0.0 0.00 0.19 0.19 95 1011.5
20260503030007 40 360 0.0 0.0 0.00 0.19 0.19 95 1011.7